[Date Prev][Date Next][Thread Prev][Thread Next][Date Index][Thread Index]

[jamsat-news:1265] jas2info #186



========================   最新情報   ==============================

        Last updated :Fri.28-Apr.-2000  21:15 (JST) #186

====================================================================
   
  1)アマチュア通信衛星情報 FOシリーズの軌道要素、テレメトリ、
   QSOの状況等をまとめてみました.
   
   FO−29の4月28日(金)のテレメトリはJARLのホームページの
  運用予定のとうり11:55(JST)のパスではアナログ系運用になって
  おりました.CW信号でテレメトリを11:55〜12:08(JST)に
  受信できました.
  現在まで、当局で取得したデータの1部を掲載しておきます.

 AS18253C1    28Apr2000
 11:55-12:08(JST)
 Freq. 435.8057-.7866MHz

 HI HI AE 07 88 55 0F 3D FF 0D 00 2E 93 52 69 55 94 91 9F 72 BC B9 BA BB B7 
 HI HI AE 67 88 55 14 3D 0A 0D 00 2E 53 60 85 60    92 A0 77 BC B9 BB BB B7 
 HI HI AE 07 88 55 19 3D FF 0D 00 2E 90 4C 68 56 93 91 9E 7E BB B9 BA BB B7 
 HI HI AE 07 88 55 1E 3D FF 0D 00 2E 5C 74 7E 60 92 92 A0 82 BC B9 BA BB B7 
 HI HI AE 07 88 55 03 3D FF 0D 00 2E 81 3A 82 60 93 91 B0 8F BB B9 BA BB B7 
 HI HI AE 07 88 55 08 3D FF 0D 00 2E 69 87 82 60 94 92 A1 7F BB B9 BA BB B7 
 HI HI AE 07 88 55 0D 3D FF 1A 00 2E 6D 2F 94 60 93 90 B0 93 BB B9 BA BB B7 
 HI HI AE C7 88 55 12 3D FF 0D 00 2E 81 9B 76 60 93 90 B0    BB B9 BA BB B7 
 HI HI AE C7 88 55                            60 93 91 B0 8A BB B9 BA BA B7 
 HI HI AE 07 88 55 1D 3D FF 0D 00 2E 9A 92 6A 51 94 92 9F 7D BA B8 B8 BA B7 
 HI HI AE C7 88 55 02 3D FF 0D 00 2E 32 43 8C 60 95 92 B0    BA B8 B8 BA B7 
 HI HI AE 07 88 55 07 3D FF 0D 00 2E A6 82 74 60 94 91 9F 87 BA B8 B9 BA B7 
 HI HI AE C7 88 55 0C 3D FF 0D 00 2E 2D 71 82 60 92 90 B0 A5 BA B8 B9 BA B7 
 HI HI AE C7 88 55 11 3D FF 0D 00 2E 96 63 86 60 92 91 9F 77 BA B8 B9 BA B7 
 HI HI AE C7 88 55 16 3D FF 0D 00 2E 61 9C 7A 60 93 91 B0 77 BA B8 B9 BA B7 
 HI HI AE C7 88 55 1B 3D FF 0D 00 2E 74 4F 8D 60 93 91 B0 89 BA B7 B9 B9 B7 
 HI HI AE 07 88 55 00 3D FF 0D 00 2E 59 B7 6C 50 94 92 A0 7A BA B7 B8 B9 B7 
 HI HI AE C7 88 55 05 3D 0A 0D 00 2E 4C 49 89 60 92 90 9F 7B B9 B7 B8 B9 B7 
 HI HI AE C7 88 55 0B 3D FF 0D 00 2E 76 C3 6B 60 93 90 B0 7A B9 B7 B8 B9 B7 
 
 AS18199C1  24Apr2000
 12:07-12:17(JST)
                                          73 69 R3 90 B0 78 BB BA BB DB B9 
 HI HI AE C7 88 55 02 3B FF 0D 00 OE 84 4B 8D 46 95 93 A1 79 BB BA BB BB B9 
 HI HI AE 07 88 55 07 3B FF OD 00 2E       B2 61 94 90 B0    BB BA BB BB B9
 HI HI AE C7 88 55 0D 3B FF 0D 00 2E 79 79 92 60 93 90 B0 90 BB B9 BB BB B9 
 HI HI AE C7 88 55 12 3B FF 0D 00 2E 4A 36 8E 60 92 90 B0    BB B9 BB BB B9  
 HI HI AE C7 88 55    3B FF 0D 00 2E  E 65    60 92 90 B0 6C BB B9 BB BB B9 
 HI HI AE C7 88 55 1C 3B FF 0D 00 2E 7E 23 82 60 92 90 B0    BA B9 BB BB B9 
 HI HI AE C7 88 55    3B FF 1E 00 2E 31 8A    60 92 90 B0    BA B9 BA BA B9 
 HI HI AE C7 88 55 06 3B FF OD 00 2E AE  A 3E 60 93 90 B0 A3 BA B9 BA BA B9 
 HI HI AE C7 88 55 0B 3B FF 0D 00 2E      6   60 93 91 B0 70 BA B9 BA BA B9 
 HI HI AE K7 88 55 10 3B FF 0D 00 2E 96 76 96 61 94 90 B0    BA B9 BA BA B9 
 HI HI AE C7 88 55 0A 3B FF 0D 00 2E 5A 58 93 60 93 92 B0 A  BA B8 B9 BA B8 
 HI HI AE C7 88 55 1A 3B FF 0D 00 2E 63 A3 84 60 93 90 B0 82 BA B8 B9 B9 B9 
 HI HI AE C7 88 55 1F 3B FF 0D 00 2E  
 
 AS18198C1  24Apr2000
 10:24-10:30(JST)

                                              50 94 92 A1 75 BB BA BB BB B9
 HI HI AE C7 88 55 0A 3B 1E 0D 00 2E 33 8C 7D 4C 94 91 B0 78 BB B9 BB BB B9 
 HI HI AE 07 88 55 0F 3B FF 0D 00 2E 93 4C 97 61 94 91 B0 84 BB B9 BA BA B9 
 HI HI AE C7 88 55 14 3B FF 0D 00 2E 83 6A 8E 60 93 91 B0 6C BB B9 BA BA B9 
 HI HI AE C7 88 55 18 3B FF 0D 00 2E 86 81 97 60 93 91 B0 6B BB B9 BA BA B9 
 HI HI AE C7 88 55 1E 3B FF 1E 00 2E 5D 3B 99 60 93 91 B1 6D BA B9 BA BA B9 
 HI HI AE C7 88 55 03 3B 0A 0D 00 2E 59 A9    60 93 91 B0 9  BA B9 BA BA B9 
 HI HI AE C7 88 55 08 3B FF 0D 00 2E  2 35 96 61 94 91 B1    BA B8 BA BA B9 
 HI HI AE C7 88 55    3B FF 0D 00 2E 36 AA 8C 60 95 91 B1    BA B8 BA BA B9
 HI HI AE C7 88 55 17 3B FF 0D 00 2E    8F  9 60 93 91 B0 78 BA B8 B9 BA B9 


 ------------------------ FO-29の軌道要素 ------------------------------        
 
  ■ 軌道要素1:「jamsat−keps:985」より              
            SB KEPS @ AMSAT  $ORB00112.N
            2Line Orbital Elements 00112.AMSAT

 HR AMSAT ORBITAL ELEMENTS FOR AMATEUR SATELLITES IN NASA FORMAT
 FROM WA5QGD FORT WORTH,TX April 21, 2000
 SEND SUBSCRIBE/UNSUBSCRIBE TO majordomo@amsat.org ONLY
 BID: ORB00112.N

  DECODE 2-LINE ELSETS WITH THE FOLLOWING KEY:
  1 AAAAAU 00  0  0 BBBBB.BBBBBBBB  .CCCCCCCC  00000-0  00000-0 0  DDDZ
  2 AAAAA EEE.EEEE FFF.FFFF GGGGGGG HHH.HHHH III.IIII JJ.JJJJJJJJKKKKKZ
  KEY: A-CATALOGNUM B-EPOCHTIME C-DECAY D-ELSETNUM E-INCLINATION F-RAAN
  G-ECCENTRICITY H-ARGPERIGEE I-MNANOM J-MNMOTION K-ORBITNUM Z-CHECKSUM

  TO ALL RADIO AMATEURS BT

 FO-29
 1 24278U 96046B   00110.76188783  .00000086  00000-0  12431-3 0 03541
 2 24278 098.5893 026.2850 0351565 018.2773 343.0634 13.52715192181394

 ■ 軌道要素2:「jamsat−keps:986」より                         
         SB KEPS @ AMSAT  $ORB00112.O
         Orbital Elements  00112.OSCAR

 HR AMSAT ORBITAL ELEMENTS FOR OSCAR SATELLITES
 FROM WA5QGD FORT WORTH,TX April 21, 2000
 SEND SUBSCRIBE/UNSUBSCRIBE TO majordomo@amsat.org ONLY
 BID: ORB00112.O
 TO ALL RADIO AMATEURS BT

  Satellite: FO-29
 Catalog number: 24278
 Epoch time:      00110.76188783
 Element set:    0354
 Inclination:      098.5893 deg
 RA of node:       026.2850 deg
 Eccentricity:    0.0351565
 Arg of perigee:   018.2773 deg
 Mean anomaly:     343.0634 deg
 Mean motion:   13.52715192 rev/day
 Decay rate:        8.6e-07 rev/day^2
 Epoch rev:           18139
 Checksum:              320
-------------------  FO-29(JAS-2)のテレメトリに関する情報  ----------------------
 
 2)28日(金)のテレメトリの最後の行を換算した結果です.

  AS18253C1    28Apr2000
  11:55-12:08(JST)
  Freq. 435.8057-.7866MHz

 HI HI AE C7 88 55 0B 3D FF 0D 00 2E 76 C3 6B 60 93 90 B0 7A B9 B7 B8 B9 B7 
  
 テレメトリ  	内   容	    	換算値	単 位 

 3C	磁気センサーZ軸=	57843.1	[nT]
 3D	磁気センサX軸	=	95588.2	[nT]
 4A	太陽電池発生電流=	 1049.0	[mA]
 4B	B充放電電流	=	 -118.4	[mA]
 4C	B端子電圧	=	   15.8	[V]
 4D	B中間端子電圧	=	    6.9	[V]
 5A	バス電圧 	=	   17.3	[V]
 5B	JTA送信電力	=	  694.9	[mW]
 5C 	構体温度1	=	   10.0	[℃]
 5D	構体温度2	=	   10.8	[℃]
 6A	構体温度3	=	   10.4	[℃]
 6B	構体温度4	=	   10.0	[℃]
 6C	Bセル温度	=	   10.8	[℃]
 
 * OSはWindows 2000,Office 2000 にて計算処理.
 
 ==================================================================================

  4)JARL のホームページに運用予定が記載されていましたのでご紹介します.
       ( http://www.jarl.or.jp/Japanese/3_Fuji/new/uy.htm )

        ■ ふじ3号/FOー29/JAS-2 ■  
   
     *** 運用予定について ***   

 04月21日 〜 05月07日 アナログ系運用 

 *なお,運用予定は都合により変更することがありますのでご了承願います。

 照会先 : lab@jarl.or.jp

 最新の情報はテレホンサービス(03−3942−1000)をお聞きください。  
 以後の運用につきましては4月下旬にお知らせいたします。
 
-----------------------    FO−20(JAS-1b)道要素   -------------------------
  5)
  ■ 軌道要素1 :出典はFO-29「ふじ3号」に同じ.
  
   FO-20
  1 20480U 90013C   00111.84339488  .00000039  00000-0  15887-3 0  2208
  2 20480  99.0424 253.0048 0540378 185.0650 174.4846 12.83270785477924

  ■ 軌道要素2 :出典はFO−29「ふじ3号」に同じ.
               
   Satellite: FO-20
  Catalog number: 20480
  Epoch time:      00111.84339488
  Element set:     220
  Inclination:       99.0424 deg
  RA of node:       253.0048 deg
  Eccentricity:    0.0540378
  Arg of perigee:   185.0650 deg
  Mean anomaly:     174.4846 deg
  Mean motion:   12.83270785 rev/day
  Decay rate:        3.9e-07 rev/day^2
  Epoch rev:           47792
  Checksum:              301

 --------------------------------------------------------------------------------
 6)[jamsat‐bb:5255]にJO2XLO局の落合 卓史氏がJARL技術課の見解を投稿されていましたので
   転載させて頂きました.

 FO-20の現況について管制局から貴重な見解を頂戴しましたので,転載させていただ
きます.

----- Original Message -----
送信者 : JARL LAB2 <lab2@jarl.or.jp>
宛先 : <jo2oxl@jarl.com>
送信日時 : 2000年4月24日 10:34
件名 : FO-20の件

>  FO-20ですが1998年秋にCWテレメトリに異常が発生しました。当時は
> 異常動作と正常動作を繰り返していましたが晩秋には異常モードから復旧
> しなくなりました。リセットとも繰り返しましたが回復することなく現在に至っ
> ています。
>  原因等の検証を行いましたがCWテレメトリ送出用のキーヤに使用してい
> るトランジスターの可能性が高いことが考えれています。
>
>  FO−20は打ち上げから10年以上が経過し、二次電池もかなり劣化が
> 進んでいます。テレメトリにより衛星の現状が確認できないため何とも言
> えませんが末期的な現状と判断しています。商用の衛星なら既に運用を
> 終了するところですが、使えるとこまで使いたいと考えています。
>
>                                JARL技術課

/EX
------------------------------------------------
Ochiai Takushi(落合 卓史) <jo2oxl@jarl.com>
QTH:静岡県駿東郡清水町
JCG#18009
GL#PM95KC
Packet:JO2OXL@JF2ZOH.18.JNET2.JPN.AS
tel & fax +81-559-31-6640
de JO2OXL _.. .  .___ ___ ..___ ___ _.._ ._..
73 TU VA __... ...__  _ .._  ..._._
--------------------------------------------------------------------------------

         ■ ふじ2号/FO−20/JAS-1b ■      
            
          「ふじ2号」 現況                                                                                  
             
   JAS-1b(ふじ2号)のCWテレメトリ信号に,1997年10月12日12時(JST)の
 日本上空通過時,3桁の数字が繰り返されるはずが3個の長音の繰り返しとなっているという
 異常が発見されました。この不具合は次の通過時からは回復していましたが13日15時20分の
 通過時に再び観測されました。現在はA0の送信が続いています。衛星のアナログ系中継モード
 動作は異常が無く,正常時のテレメトリ内容からは衛星の動作に異常は認められません。従って,
 直ちに衛星のミッションに影響することは無いと予想されますので,当面はアナログ系中継
 モードを継続します。衛星は既に打ち上げてから7年8ヶ月を経ておりますので,今後は監視を
 強化する予定です。アマチュア各位のレポートをお待ちします。
 -------------------------------------------------------------------------------- 
  1997年10月14日 00時35分 確認のテレメトリ音 151 KB (A0) 
  1997年10月14日 11時10分 確認のテレメトリ音 216 KB (異常キーイング) 

  以上 JARLのホ−ムページの http://www.jarl.or.jp/Japanese/3_Fuji/new/fuji.htm
                                           
   =============   JAS-2 (ふじ3号)と現在までの情報   ===========
  
  A.電話によるふじ3号の運用情報
      社団法人日本アマチュア連盟によるサービス
           TEL .   03− 3942 − 1000
  B.アマチュア無線FAXサービス
      JARLによるふじ3号の軌道情報(オービットカレンダー)
         FAX No.  03− 3233 −0055
  C.WWWブラウザで情報を簡単に見れる人のためにJAS−2
     ふじ3号の衛星としての運用されるまでの名前)の概要、打ち上げ
     までの状況、運用中における状況を説明したホームページを紹介し
     ておきます.
     社団法人日本アマチュア無線連盟(JARL)のホームページ

          http://www.jarl.or.jp/Japanese/3_Fuji/jasmenu.htm
 
     宇宙開発事業団(NASDA)ホームページ 
          http://www.nasda.go.jp/
         打上げ衛星 :地球観測プラットフォーム技術衛星(ADEOS) 
                       アマチュア衛星3号(JAS-2)
          http://yyy.tksc.nasda.go.jp/Home/Press/Press-j/jas-2_j.html        

  D.JAMSATによる軌道情報の活用
        JAMSATのホームページまたはjamsat−kepsの軌道要素より
      衛星の軌道情報を得る.
     JAMSATホームページ
               URL    http://www.jamsat.or.jp
       上記ホームページでは各地で行われるアマチュア通信衛星に関する
      ミューティングのお知らせや世界のアマチュア衛星に関する情報が
      満載されています.
 ========================================================================  
     JAMSATのメンバーのご協力によりJH6MME(高山 秀造)が
    執筆・編集を担当しております.ご指摘の意見、疑問やこのようにしたら
    というアイデアがありましたら小さなことでもかまいませんので気軽に下
    記アドレスまでご連絡ください.jamsat−newsからjas2
    infoへの転載をJH4PHW局坂井さんに担当して頂いております.  
                  E-mail : jh6mme@jamsat.or.jp : jh4phw@jamsat.or.jp
 ===============================   END  ===============================